,,,PA_Meas_PMT16A,,PR_Meas_QMR101_102,,RH_Meas_QMH101,,SR_Meas_QMS101,,TA_Meas_QMH101,,GenWind,,GenWind,
date,time,status,PA,status,PR,status,RH,status,SR,status,TA,status,DirAvg,status,SpdAvg,
2010-12-19, 00:00:04,VALID,999.002,VALID,0,VALID,88.351,VALID,0.112286,VALID,24.2458,VALID,305,VALID,0,
2010-12-19, 00:01:04,VALID,999.003,VALID,0,VALID,88.3586,VALID,0.112286,VALID,24.2458,VALID,305,VALID,0.330469,
2010-12-19, 00:02:04,VALID,998.989,VALID,0,VALID,88.3968,VALID,0,VALID,24.2653,VALID,305,VALID,0.289063,
2010-12-19, 00:03:04,VALID,998.958,VALID,0,VALID,88.4349,VALID,0,VALID,24.2848,VALID,305,VALID,0.0398437,
2010-12-19, 00:04:04,VALID,998.962,VALID,0,VALID,88.4654,VALID,0.112286,VALID,24.3043,VALID,305,VALID,0.198828,
2010-12-19, 00:05:04,VALID,998.877,VALID,0,VALID,88.6333,VALID,0,VALID,24.2848,VALID,305,VALID,0.467187,
2010-12-19, 00:06:04,VALID,998.89,VALID,0,VALID,88.7401,VALID,0,VALID,24.2653,VALID,305,VALID,0.365625,
2010-12-19, 00:07:04,VALID,998.901,VALID,0,VALID,88.9385,VALID,0,VALID,24.2866,VALID,305,VALID,0.282813,
2010-12-19, 00:08:04,VALID,998.918,VALID,0,VALID,89.1063,VALID,0,VALID,24.2458,VALID,305,VALID,0.274609,
2010-12-19, 00:09:04,VALID,998.909,VALID,0,VALID,89.2513,VALID,0,VALID,24.2263,VALID,305,VALID,0.377734,
2010-12-19, 00:10:04,VALID,998.892,VALID,0,VALID,89.2589,VALID,0.112286,VALID,24.2086,VALID,305,VALID,0.518359,
2010-12-19, 00:11:04,VALID,998.884,VALID,0,VALID,89.3123,VALID,0,VALID,24.1891,VALID,305,VALID,0.461719,
2010-12-19, 00:12:04,VALID,998.848,VALID,0,VALID,89.4268,VALID,0,VALID,24.15,VALID,305,VALID,0.269922,
2010-12-19, 00:13:04,VALID,998.818,VALID,0,VALID,89.526,VALID,0,VALID,24.1305,VALID,305,VALID,0.0207031,
2010-12-19, 00:14:04,VALID,998.837,VALID,0,VALID,89.5794,VALID,0,VALID,24.111,VALID,305,VALID,0,
2010-12-19, 00:15:04,VALID,998.812,VALID,0,VALID,89.6709,VALID,0,VALID,24.072,VALID,305,VALID,0.00351562,
2010-12-19, 00:16:04,VALID,998.76,VALID,0,VALID,89.8311,VALID,0,VALID,24.072,VALID,305,VALID,0.449609,
2010-12-19, 00:17:04,VALID,998.753,VALID,0,VALID,89.9685,VALID,0,VALID,24.0915,VALID,305,VALID,0.557813,
2010-12-19, 00:18:04,VALID,998.709,VALID,0,VALID,90.0066,VALID,0,VALID,24.111,VALID,305,VALID,0.501562,
2010-12-19, 00:19:04,VALID,998.741,VALID,0,VALID,89.9761,VALID,0,VALID,24.1305,VALID,305,VALID,0.284766,
2010-12-19, 00:20:04,VALID,998.709,VALID,0,VALID,89.938,VALID,0,VALID,24.1305,VALID,305,VALID,0.312891,
2010-12-19, 00:21:04,VALID,998.728,VALID,0,VALID,89.999,VALID,0,VALID,24.1305,VALID,305,VALID,0.561328,
2010-12-19, 00:22:04,VALID,998.708,VALID,0,VALID,90.0371,VALID,0,VALID,24.1305,VALID,305,VALID,0.536719,
2010-12-19, 00:23:04,VALID,998.719,VALID,0,VALID,90.1287,VALID,0,VALID,24.111,VALID,305,VALID,0.342187,
2010-12-19, 00:24:04,VALID,998.72,VALID,0,VALID,90.1821,VALID,0,VALID,24.111,VALID,305,VALID,0.351953,
2010-12-19, 00:25:04,VALID,998.721,VALID,0,VALID,90.205,VALID,0,VALID,24.0701,VALID,305,VALID,0.211719,
2010-12-19, 00:26:04,VALID,998.679,VALID,0,VALID,90.2355,VALID,0,VALID,24.0506,VALID,305,VALID,0.0199219,
2010-12-19, 00:27:04,VALID,998.645,VALID,0,VALID,90.1974,VALID,0,VALID,24.0506,VALID,305,VALID,0,
2010-12-19, 00:28:04,VALID,998.635,VALID,0,VALID,90.1897,VALID,0,VALID,24.0311,VALID,305,VALID,0.00820312,
2010-12-19, 00:29:04,VALID,998.631,VALID,0,VALID,90.1668,VALID,0.112286,VALID,24.0506,VALID,305,VALID,0.126172,
2010-12-19, 00:30:04,VALID,998.599,VALID,0,VALID,90.1897,VALID,0,VALID,24.0506,VALID,305,VALID,0.0078125,
2010-12-19, 00:31:04,VALID,998.6,VALID,0,VALID,90.2584,VALID,0,VALID,24.0506,VALID,305,VALID,0.369531,
2010-12-19, 00:32:04,VALID,998.603,VALID,0,VALID,90.2966,VALID,0,VALID,24.0701,VALID,35,VALID,0.766016,
2010-12-19, 00:33:04,VALID,998.634,VALID,0,VALID,90.2737,VALID,0,VALID,24.0701,VALID,47,VALID,1.0082,
2010-12-19, 00:34:04,VALID,998.674,VALID,0,VALID,90.266,VALID,0,VALID,24.0897,VALID,53,VALID,1.00586,
2010-12-19, 00:35:04,VALID,998.69,VALID,0,VALID,90.3576,VALID,0.112286,VALID,24.1287,VALID,53,VALID,1.12578,
2010-12-19, 00:36:04,VALID,998.676,VALID,0,VALID,90.4797,VALID,0.112286,VALID,24.1464,VALID,50,VALID,1.09648,
2010-12-19, 00:37:04,VALID,998.686,VALID,0,VALID,90.5636,VALID,0,VALID,24.1677,VALID,45,VALID,1.25117,
2010-12-19, 00:38:04,VALID,998.657,VALID,0,VALID,90.617,VALID,0,VALID,24.1677,VALID,46,VALID,1.24102,
2010-12-19, 00:39:04,VALID,998.675,VALID,0,VALID,90.5941,VALID,0.112286,VALID,24.1482,VALID,51,VALID,1.09727,
2010-12-19, 00:40:04,VALID,998.673,VALID,0,VALID,90.5178,VALID,0.112286,VALID,24.1305,VALID,65,VALID,1.39766,
2010-12-19, 00:41:04,VALID,998.648,VALID,0,VALID,90.4491,VALID,0,VALID,24.1305,VALID,72,VALID,1.03047,
2010-12-19, 00:42:04,VALID,998.602,VALID,0,VALID,90.3881,VALID,0,VALID,24.1305,VALID,72,VALID,0.769141,
2010-12-19, 00:43:04,VALID,998.566,VALID,0,VALID,90.2889,VALID,0,VALID,24.1305,VALID,72,VALID,0.953516,
2010-12-19, 00:44:04,VALID,998.502,VALID,0,VALID,90.2279,VALID,0,VALID,24.1305,VALID,72,VALID,1.09961,
2010-12-19, 00:45:04,VALID,998.461,VALID,0,VALID,90.2279,VALID,0,VALID,24.15,VALID,69,VALID,1.13125,
2010-12-19, 00:46:04,VALID,998.406,VALID,0,VALID,90.1668,VALID,0,VALID,24.1696,VALID,69,VALID,0.874609,
2010-12-19, 00:47:04,VALID,998.389,VALID,0,VALID,90.1287,VALID,0,VALID,24.1696,VALID,61,VALID,0.721484,
2010-12-19, 00:48:04,VALID,998.413,VALID,0,VALID,90.0753,VALID,0,VALID,24.1696,VALID,61,VALID,0.808594,
2010-12-19, 00:49:04,VALID,998.418,VALID,0,VALID,90.0829,VALID,0,VALID,24.1696,VALID,61,VALID,0.716406,
2010-12-19, 00:50:04,VALID,998.426,VALID,0,VALID,90.0295,VALID,0,VALID,24.1696,VALID,61,VALID,0.898438,
2010-12-19, 00:51:04,VALID,998.4,VALID,0,VALID,89.9151,VALID,0,VALID,24.15,VALID,61,VALID,0.905469,
2010-12-19, 00:52:04,VALID,998.407,VALID,0,VALID,89.7701,VALID,0,VALID,24.1519,VALID,61,VALID,0.733203,
2010-12-19, 00:53:04,VALID,998.405,VALID,0,VALID,89.6328,VALID,0,VALID,24.1305,VALID,61,VALID,0.917188,
2010-12-19, 00:54:04,VALID,998.404,VALID,0,VALID,89.5946,VALID,0,VALID,24.111,VALID,61,VALID,0.998438,
2010-12-19, 00:55:04,VALID,998.381,VALID,0,VALID,89.6099,VALID,0,VALID,24.111,VALID,61,VALID,1.01563,
2010-12-19, 00:56:04,VALID,998.376,VALID,0,VALID,89.6251,VALID,0,VALID,24.1092,VALID,41,VALID,0.951953,
2010-12-19, 00:57:04,VALID,998.331,VALID,0,VALID,89.6633,VALID,0,VALID,24.0897,VALID,41,VALID,0.7375,
2010-12-19, 00:58:04,VALID,998.337,VALID,0,VALID,89.732,VALID,0,VALID,24.0701,VALID,41,VALID,0.499609,
2010-12-19, 00:59:04,VALID,998.306,VALID,0,VALID,89.8006,VALID,0,VALID,24.0701,VALID,41,VALID,0.268359,
2010-12-19, 01:00:04,VALID,998.279,VALID,0,VALID,89.9151,VALID,0,VALID,24.0506,VALID,40,VALID,0.520312,
2010-12-19, 01:01:04,VALID,998.244,VALID,0,VALID,90.0371,VALID,0,VALID,24.0506,VALID,38,VALID,0.65625,
2010-12-19, 01:02:04,VALID,998.276,VALID,0,VALID,90.1745,VALID,0,VALID,24.0311,VALID,348,VALID,1.18477,
2010-12-19, 01:03:04,VALID,998.228,VALID,0,VALID,90.2813,VALID,0,VALID,24.0506,VALID,348,VALID,1.16484,
2010-12-19, 01:04:04,VALID,998.216,VALID,0,VALID,90.411,VALID,0,VALID,24.0116,VALID,339,VALID,1.02109,
2010-12-19, 01:05:04,VALID,998.225,VALID,0,VALID,90.3957,VALID,0,VALID,23.9921,VALID,353,VALID,1.06484,
2010-12-19, 01:06:04,VALID,998.218,VALID,0,VALID,90.3957,VALID,0,VALID,23.9726,VALID,8,VALID,0.807813,
2010-12-19, 01:07:04,VALID,998.25,VALID,0,VALID,90.4034,VALID,0,VALID,23.9531,VALID,8,VALID,0.923828,
2010-12-19, 01:08:04,VALID,998.234,VALID,0,VALID,90.411,VALID,0,VALID,23.9336,VALID,8,VALID,1.13047,
2010-12-19, 01:09:04,VALID,998.249,VALID,0,VALID,90.4415,VALID,0,VALID,23.9336,VALID,7,VALID,1.02656,
2010-12-19, 01:10:04,VALID,998.271,VALID,0,VALID,90.4186,VALID,0,VALID,23.9159,VALID,9,VALID,1.13437,
2010-12-19, 01:11:04,VALID,998.264,VALID,0,VALID,90.3881,VALID,0,VALID,23.8963,VALID,24,VALID,1.06875,
2010-12-19, 01:12:04,VALID,998.266,VALID,0,VALID,90.3957,VALID,0,VALID,23.8963,VALID,23,VALID,0.979688,
2010-12-19, 01:13:04,VALID,998.268,VALID,0,VALID,90.3576,VALID,0,VALID,23.8768,VALID,14,VALID,1.09023,
2010-12-19, 01:14:04,VALID,998.252,VALID,0,VALID,90.2279,VALID,0,VALID,23.8573,VALID,10,VALID,1.21875,
2010-12-19, 01:15:04,VALID,998.273,VALID,0,VALID,90.0753,VALID,0,VALID,23.8183,VALID,6,VALID,0.992188,
2010-12-19, 01:16:04,VALID,998.289,VALID,0,VALID,89.8998,VALID,0,VALID,23.8378,VALID,16,VALID,1.32266,
2010-12-19, 01:17:04,VALID,998.318,VALID,0,VALID,89.7091,VALID,0,VALID,23.8396,VALID,9,VALID,1.44336,
2010-12-19, 01:18:04,VALID,998.325,VALID,0,VALID,89.6099,VALID,0,VALID,23.8378,VALID,12,VALID,1.35977,
2010-12-19, 01:19:04,VALID,998.349,VALID,0,VALID,89.5489,VALID,0,VALID,23.8573,VALID,26,VALID,1.31836,
2010-12-19, 01:20:04,VALID,998.398,VALID,0,VALID,89.5565,VALID,0,VALID,23.8573,VALID,11,VALID,1.0875,
2010-12-19, 01:21:04,VALID,998.333,VALID,0,VALID,89.6557,VALID,0,VALID,23.8768,VALID,21,VALID,1.13789,
2010-12-19, 01:22:04,VALID,998.347,VALID,0,VALID,89.7701,VALID,0,VALID,23.8573,VALID,23,VALID,1.13906,
2010-12-19, 01:23:04,VALID,998.343,VALID,0,VALID,89.8922,VALID,0,VALID,23.8378,VALID,23,VALID,1.09453,
2010-12-19, 01:24:04,VALID,998.344,VALID,0,VALID,90.0219,VALID,0,VALID,23.8183,VALID,27,VALID,1.26055,
2010-12-19, 01:25:04,VALID,998.336,VALID,0,VALID,90.1974,VALID,0,VALID,23.797,VALID,27,VALID,0.841406,
2010-12-19, 01:26:04,VALID,998.349,VALID,0,VALID,90.3423,VALID,0,VALID,23.7579,VALID,27,VALID,0.689062,
2010-12-19, 01:27:04,VALID,998.362,VALID,0,VALID,90.472,VALID,0,VALID,23.7579,VALID,27,VALID,0.417578,
2010-12-19, 01:28:04,VALID,998.35,VALID,0,VALID,90.5865,VALID,0,VALID,23.7384,VALID,27,VALID,0.547656,
2010-12-19, 01:29:04,VALID,998.372,VALID,0,VALID,90.6323,VALID,0,VALID,23.7384,VALID,27,VALID,0.421094,
2010-12-19, 01:30:04,VALID,998.399,VALID,0,VALID,90.7162,VALID,0,VALID,23.7384,VALID,27,VALID,0.533984,
2010-12-19, 01:31:04,VALID,998.435,VALID,0,VALID,90.7696,VALID,0,VALID,23.7384,VALID,27,VALID,0.494141,
2010-12-19, 01:32:04,VALID,998.491,VALID,0,VALID,90.8154,VALID,0,VALID,23.7384,VALID,27,VALID,0.417969,
2010-12-19, 01:33:04,VALID,998.541,VALID,0,VALID,90.8306,VALID,0,VALID,23.7384,VALID,50,VALID,0.725,
2010-12-19, 01:34:04,VALID,998.582,VALID,0,VALID,90.8001,VALID,0,VALID,23.7384,VALID,50,VALID,0.694141,
2010-12-19, 01:35:04,VALID,998.617,VALID,0,VALID,90.7696,VALID,0,VALID,23.7793,VALID,50,VALID,0.567969,
2010-12-19, 01:36:04,VALID,998.629,VALID,0,VALID,90.7467,VALID,0,VALID,23.7579,VALID,50,VALID,0.446484,
2010-12-19, 01:37:04,VALID,998.621,VALID,0,VALID,90.7391,VALID,0.112286,VALID,23.7988,VALID,50,VALID,0.453125,
2010-12-19, 01:38:04,VALID,998.607,VALID,0,VALID,90.762,VALID,0,VALID,23.7775,VALID,50,VALID,0.456641,
2010-12-19, 01:39:04,VALID,998.577,VALID,0,VALID,90.7314,VALID,0,VALID,23.7775,VALID,50,VALID,0.251563,
2010-12-19, 01:40:04,VALID,998.559,VALID,0,VALID,90.7162,VALID,0,VALID,23.7775,VALID,50,VALID,0.108984,
2010-12-19, 01:41:04,VALID,998.572,VALID,0,VALID,90.6857,VALID,0,VALID,23.7775,VALID,50,VALID,0,
2010-12-19, 01:42:04,VALID,998.566,VALID,0,VALID,90.6704,VALID,0,VALID,23.7775,VALID,50,VALID,0,
2010-12-19, 01:43:04,VALID,998.549,VALID,0,VALID,90.6704,VALID,0,VALID,23.7988,VALID,50,VALID,0.230078,
2010-12-19, 01:44:04,VALID,998.534,VALID,0,VALID,90.7238,VALID,0,VALID,23.7775,VALID,50,VALID,0.399219,
2010-12-19, 01:45:04,VALID,998.583,VALID,0,VALID,90.678,VALID,0,VALID,23.7793,VALID,50,VALID,0.535547,
2010-12-19, 01:46:04,VALID,998.544,VALID,0,VALID,90.5941,VALID,0,VALID,23.7988,VALID,50,VALID,0.529297,
2010-12-19, 01:47:04,VALID,998.579,VALID,0,VALID,90.4644,VALID,0,VALID,23.7775,VALID,50,VALID,0.514063,
2010-12-19, 01:48:04,VALID,998.569,VALID,0,VALID,90.3042,VALID,0,VALID,23.8183,VALID,163,VALID,0.711719,
2010-12-19, 01:49:04,VALID,998.567,VALID,0,VALID,90.1134,VALID,0,VALID,23.836,VALID,157,VALID,1.07852,
2010-12-19, 01:50:04,VALID,998.541,VALID,0,VALID,89.8998,VALID,0.112286,VALID,23.875,VALID,157,VALID,0.967578,
2010-12-19, 01:51:04,VALID,998.57,VALID,0,VALID,89.6709,VALID,0,VALID,23.9354,VALID,160,VALID,1.19492,
2010-12-19, 01:52:04,VALID,998.548,VALID,0,VALID,89.4726,VALID,0.112286,VALID,23.9531,VALID,158,VALID,1.39531,
2010-12-19, 01:53:04,VALID,998.548,VALID,0,VALID,89.4878,VALID,0,VALID,24.0311,VALID,151,VALID,1.56719,
2010-12-19, 01:54:04,VALID,998.564,VALID,0,VALID,89.526,VALID,0,VALID,24.0506,VALID,170,VALID,1.50469,
2010-12-19, 01:55:04,VALID,998.558,VALID,0,VALID,89.5489,VALID,0,VALID,24.0897,VALID,169,VALID,1.66562,
2010-12-19, 01:56:04,VALID,998.576,VALID,0,VALID,89.5946,VALID,0,VALID,24.1092,VALID,170,VALID,1.45586,
2010-12-19, 01:57:04,VALID,998.602,VALID,0,VALID,89.5489,VALID,0,VALID,24.1677,VALID,173,VALID,1.84375,
2010-12-19, 01:58:04,VALID,998.609,VALID,0,VALID,89.381,VALID,0,VALID,24.2067,VALID,176,VALID,1.86992,
2010-12-19, 01:59:04,VALID,998.59,VALID,0,VALID,89.1292,VALID,0,VALID,24.2848,VALID,166,VALID,1.87188,
2010-12-19, 02:00:04,VALID,998.597,VALID,0,VALID,88.9843,VALID,0,VALID,24.3043,VALID,172,VALID,1.81094,
2010-12-19, 02:01:04,VALID,998.567,VALID,0,VALID,88.824,VALID,0,VALID,24.3433,VALID,171,VALID,2.12109,
2010-12-19, 02:02:04,VALID,998.581,VALID,0,VALID,88.6867,VALID,0,VALID,24.3629,VALID,171,VALID,2.00312,
2010-12-19, 02:03:04,VALID,998.547,VALID,0,VALID,88.4502,VALID,0,VALID,24.3824,VALID,177,VALID,2.1457,
2010-12-19, 02:04:04,VALID,998.496,VALID,0,VALID,88.4426,VALID,0,VALID,24.4214,VALID,178,VALID,2.03633,
2010-12-19, 02:05:04,VALID,998.511,VALID,0,VALID,88.5341,VALID,0,VALID,24.4409,VALID,176,VALID,1.93984,
2010-12-19, 02:06:04,VALID,998.477,VALID,0,VALID,88.5723,VALID,0,VALID,24.4214,VALID,182,VALID,1.56758,
2010-12-19, 02:07:04,VALID,998.469,VALID,0,VALID,88.6409,VALID,0,VALID,24.4409,VALID,189,VALID,1.71641,
2010-12-19, 02:08:04,VALID,998.49,VALID,0,VALID,88.4883,VALID,0,VALID,24.4604,VALID,181,VALID,1.46484,
2010-12-19, 02:09:04,VALID,998.46,VALID,0,VALID,88.4273,VALID,0,VALID,24.48,VALID,197,VALID,1.43984,
2010-12-19, 02:10:04,VALID,998.459,VALID,0,VALID,88.3663,VALID,0,VALID,24.4995,VALID,193,VALID,1.08359,
2010-12-19, 02:11:04,VALID,998.451,VALID,0,VALID,88.3052,VALID,0,VALID,24.4995,VALID,201,VALID,0.808984,
2010-12-19, 02:12:04,VALID,998.427,VALID,0,VALID,88.2518,VALID,0,VALID,24.4995,VALID,200,VALID,0.980469,
2010-12-19, 02:13:04,VALID,998.417,VALID,0,VALID,88.2594,VALID,0,VALID,24.4995,VALID,207,VALID,0.779688,
2010-12-19, 02:14:04,VALID,998.377,VALID,0,VALID,88.0992,VALID,0,VALID,24.519,VALID,190,VALID,0.633594,
2010-12-19, 02:15:04,VALID,998.387,VALID,0,VALID,88.0153,VALID,0,VALID,24.519,VALID,187,VALID,0.457812,
2010-12-19, 02:16:04,VALID,998.396,VALID,0,VALID,88.0382,VALID,0,VALID,24.4995,VALID,187,VALID,0.232031,
2010-12-19, 02:17:04,VALID,998.376,VALID,0,VALID,88.0077,VALID,0,VALID,24.4995,VALID,217,VALID,0.610547,
2010-12-19, 02:18:04,VALID,998.378,VALID,0,VALID,88.0458,VALID,0,VALID,24.519,VALID,269,VALID,0.621484,
2010-12-19, 02:19:04,VALID,998.369,VALID,0,VALID,88.1755,VALID,0,VALID,24.48,VALID,269,VALID,0.529688,
2010-12-19, 02:20:04,VALID,998.416,VALID,0,VALID,88.3357,VALID,0,VALID,24.4604,VALID,269,VALID,0.3625,
2010-12-19, 02:21:04,VALID,998.451,VALID,0,VALID,88.4883,VALID,0,VALID,24.4409,VALID,269,VALID,0.354297,
2010-12-19, 02:22:04,VALID,998.431,VALID,0,VALID,88.6867,VALID,0,VALID,24.4214,VALID,269,VALID,0.426172,
2010-12-19, 02:23:04,VALID,998.454,VALID,0,VALID,88.8927,VALID,0,VALID,24.4037,VALID,301,VALID,0.766797,
2010-12-19, 02:24:04,VALID,998.427,VALID,0,VALID,89.0148,VALID,0,VALID,24.3433,VALID,358,VALID,1.13242,
2010-12-19, 02:25:04,VALID,998.442,VALID,0,VALID,89.3047,VALID,0,VALID,24.3062,VALID,358,VALID,1.1332,
2010-12-19, 02:26:04,VALID,998.443,VALID,0,VALID,89.4649,VALID,0,VALID,24.2476,VALID,352,VALID,0.969922,
2010-12-19, 02:27:04,VALID,998.413,VALID,0,VALID,89.526,VALID,0,VALID,24.2067,VALID,352,VALID,0.856641,
2010-12-19, 02:28:04,VALID,998.418,VALID,0,VALID,89.648,VALID,0,VALID,24.1872,VALID,346,VALID,0.735156,
2010-12-19, 02:29:04,VALID,998.454,VALID,0,VALID,89.7472,VALID,0,VALID,24.1677,VALID,346,VALID,0.737109,
2010-12-19, 02:30:04,VALID,998.446,VALID,0,VALID,89.854,VALID,0,VALID,24.1287,VALID,346,VALID,0.596094,
2010-12-19, 02:31:04,VALID,998.481,VALID,0,VALID,89.9609,VALID,0,VALID,24.1092,VALID,346,VALID,0.721875,
2010-12-19, 02:32:04,VALID,998.487,VALID,0,VALID,90.0219,VALID,0,VALID,24.1305,VALID,346,VALID,0.662109,
2010-12-19, 02:33:04,VALID,998.511,VALID,0,VALID,90.0753,VALID,0,VALID,24.1305,VALID,346,VALID,0.709375,
2010-12-19, 02:34:04,VALID,998.52,VALID,0,VALID,90.1897,VALID,0,VALID,24.111,VALID,346,VALID,0.579297,
2010-12-19, 02:35:04,VALID,998.538,VALID,0,VALID,90.2279,VALID,0,VALID,24.0506,VALID,35,VALID,1.21406,
2010-12-19, 02:36:04,VALID,998.56,VALID,0,VALID,90.2737,VALID,0,VALID,24.0525,VALID,355,VALID,0.779297,
2010-12-19, 02:37:04,VALID,998.568,VALID,0,VALID,90.3423,VALID,0,VALID,24.0329,VALID,349,VALID,0.694922,
2010-12-19, 02:38:04,VALID,998.588,VALID,0,VALID,90.3881,VALID,0,VALID,23.9921,VALID,349,VALID,0.319531,
2010-12-19, 02:39:04,VALID,998.621,VALID,0,VALID,90.4644,VALID,0,VALID,23.9921,VALID,349,VALID,0.3375,
2010-12-19, 02:40:04,VALID,998.61,VALID,0,VALID,90.5636,VALID,0,VALID,23.9921,VALID,349,VALID,0.248437,
2010-12-19, 02:41:04,VALID,998.635,VALID,0,VALID,90.6246,VALID,0,VALID,24.0116,VALID,349,VALID,0.327734,
2010-12-19, 02:42:04,VALID,998.642,VALID,0,VALID,90.6704,VALID,0,VALID,24.0116,VALID,349,VALID,0.341016,
2010-12-19, 02:43:04,VALID,998.625,VALID,0,VALID,90.6475,VALID,0,VALID,24.0134,VALID,349,VALID,0.414844,
2010-12-19, 02:44:04,VALID,998.628,VALID,0,VALID,90.6094,VALID,0,VALID,23.9921,VALID,349,VALID,0.380859,
2010-12-19, 02:45:04,VALID,998.591,VALID,0,VALID,90.5788,VALID,0,VALID,23.9744,VALID,349,VALID,0.428125,
2010-12-19, 02:46:04,VALID,998.611,VALID,0,VALID,90.5407,VALID,0,VALID,23.9726,VALID,349,VALID,0.394141,
2010-12-19, 02:47:04,VALID,998.604,VALID,0,VALID,90.5254,VALID,0,VALID,23.9531,VALID,349,VALID,0.260156,
2010-12-19, 02:48:04,VALID,998.589,VALID,0,VALID,90.5407,VALID,0,VALID,23.9744,VALID,349,VALID,0.298047,
2010-12-19, 02:49:04,VALID,998.591,VALID,0,VALID,90.5254,VALID,0,VALID,23.9531,VALID,349,VALID,0.028125,
2010-12-19, 02:50:04,VALID,998.597,VALID,0,VALID,90.5483,VALID,0,VALID,23.9531,VALID,349,VALID,0,
2010-12-19, 02:51:04,VALID,998.613,VALID,0,VALID,90.6017,VALID,0,VALID,23.9336,VALID,349,VALID,0,
2010-12-19, 02:52:04,VALID,998.585,VALID,0,VALID,90.6704,VALID,0,VALID,23.9531,VALID,349,VALID,0,
2010-12-19, 02:53:04,VALID,998.584,VALID,0,VALID,90.7238,VALID,0.112286,VALID,23.9531,VALID,349,VALID,0.198047,
2010-12-19, 02:54:04,VALID,998.553,VALID,0,VALID,90.7925,VALID,0,VALID,23.9549,VALID,349,VALID,0.184766,
2010-12-19, 02:55:04,VALID,998.487,VALID,0,VALID,90.8306,VALID,0,VALID,23.9336,VALID,349,VALID,0.265234,
2010-12-19, 02:56:04,VALID,998.461,VALID,0,VALID,90.8535,VALID,0,VALID,23.9549,VALID,349,VALID,0.383203,
2010-12-19, 02:57:04,VALID,998.454,VALID,0,VALID,90.8993,VALID,0,VALID,23.9336,VALID,349,VALID,0.421875,
2010-12-19, 02:58:04,VALID,998.444,VALID,0,VALID,90.8917,VALID,0,VALID,23.9336,VALID,349,VALID,0.317969,
2010-12-19, 02:59:04,VALID,998.413,VALID,0,VALID,90.8611,VALID,0,VALID,23.9336,VALID,349,VALID,0.287109,
2010-12-19, 03:00:04,VALID,998.398,VALID,0,VALID,90.7925,VALID,0.112286,VALID,23.9549,VALID,349,VALID,0.344531,
2010-12-19, 03:01:04,VALID,998.403,VALID,0,VALID,90.7467,VALID,0,VALID,23.9744,VALID,349,VALID,0.354297,
2010-12-19, 03:02:04,VALID,998.403,VALID,0,VALID,90.6628,VALID,0,VALID,23.9531,VALID,349,VALID,0.353906,
2010-12-19, 03:03:04,VALID,998.392,VALID,0,VALID,90.5865,VALID,0,VALID,23.9744,VALID,349,VALID,0.268359,
2010-12-19, 03:04:04,VALID,998.376,VALID,0,VALID,90.4949,VALID,0,VALID,23.9726,VALID,349,VALID,0.226563,
2010-12-19, 03:05:04,VALID,998.383,VALID,0,VALID,90.4644,VALID,0,VALID,23.9744,VALID,349,VALID,0.341016,
2010-12-19, 03:06:04,VALID,998.395,VALID,0,VALID,90.3576,VALID,0,VALID,23.9336,VALID,349,VALID,0.392969,
2010-12-19, 03:07:04,VALID,998.372,VALID,0,VALID,90.2966,VALID,0,VALID,23.9336,VALID,349,VALID,0.719531,
2010-12-19, 03:08:04,VALID,998.387,VALID,0,VALID,90.2584,VALID,0,VALID,23.9726,VALID,257,VALID,0.921484,
2010-12-19, 03:09:04,VALID,998.36,VALID,0,VALID,90.1897,VALID,0,VALID,23.9921,VALID,163,VALID,1.40742,
2010-12-19, 03:10:04,VALID,998.393,VALID,0,VALID,90.0982,VALID,0,VALID,24.0329,VALID,156,VALID,1.3332,
2010-12-19, 03:11:04,VALID,998.395,VALID,0,VALID,90.0066,VALID,0,VALID,24.0329,VALID,155,VALID,1.27266,
2010-12-19, 03:12:04,VALID,998.393,VALID,0,VALID,89.9837,VALID,0,VALID,24.072,VALID,155,VALID,1.35977,
2010-12-19, 03:13:04,VALID,998.431,VALID,0,VALID,89.8998,VALID,0,VALID,24.111,VALID,155,VALID,1.21211,
2010-12-19, 03:14:04,VALID,998.469,VALID,0,VALID,89.8083,VALID,0,VALID,24.0897,VALID,159,VALID,1.16445,
2010-12-19, 03:15:04,VALID,998.462,VALID,0,VALID,89.793,VALID,0,VALID,24.1092,VALID,158,VALID,1.08711,
2010-12-19, 03:16:04,VALID,998.423,VALID,0,VALID,89.7396,VALID,0,VALID,24.1287,VALID,158,VALID,0.79375,
2010-12-19, 03:17:04,VALID,998.422,VALID,0,VALID,89.648,VALID,0,VALID,24.1482,VALID,158,VALID,0.608594,
2010-12-19, 03:18:04,VALID,998.408,VALID,0,VALID,89.5412,VALID,0,VALID,24.1677,VALID,158,VALID,0.447656,
2010-12-19, 03:19:04,VALID,998.406,VALID,0,VALID,89.4191,VALID,0,VALID,24.1677,VALID,158,VALID,0.525391,
2010-12-19, 03:20:04,VALID,998.389,VALID,0,VALID,89.3886,VALID,0,VALID,24.1677,VALID,158,VALID,0.435156,
2010-12-19, 03:21:04,VALID,998.366,VALID,0,VALID,89.3581,VALID,0,VALID,24.1677,VALID,158,VALID,0.239063,
2010-12-19, 03:22:04,VALID,998.385,VALID,0,VALID,89.1979,VALID,0,VALID,24.1482,VALID,45,VALID,1.2582,
2010-12-19, 03:23:04,VALID,998.403,VALID,0,VALID,89.2132,VALID,0,VALID,24.0897,VALID,42,VALID,0.65,
2010-12-19, 03:24:04,VALID,998.355,VALID,0,VALID,89.4497,VALID,0,VALID,24.0506,VALID,42,VALID,0.625,
2010-12-19, 03:25:04,VALID,998.353,VALID,0,VALID,89.6557,VALID,0.112286,VALID,24.0116,VALID,42,VALID,0.446875,
2010-12-19, 03:26:04,VALID,998.371,VALID,0,VALID,89.7549,VALID,0,VALID,23.9921,VALID,42,VALID,0.540625,
2010-12-19, 03:27:04,VALID,998.351,VALID,0,VALID,89.8922,VALID,0.112286,VALID,23.9726,VALID,42,VALID,0.410547,
2010-12-19, 03:28:04,VALID,998.337,VALID,0,VALID,89.9227,VALID,0,VALID,23.914,VALID,42,VALID,0.497656,
2010-12-19, 03:29:04,VALID,998.304,VALID,0,VALID,90.0066,VALID,0,VALID,23.8945,VALID,42,VALID,0.755469,
2010-12-19, 03:30:04,VALID,998.325,VALID,0,VALID,90.1897,VALID,0,VALID,23.8555,VALID,42,VALID,0.976953,
2010-12-19, 03:31:04,VALID,998.312,VALID,0,VALID,90.411,VALID,0.112286,VALID,23.8555,VALID,42,VALID,1.04375,
2010-12-19, 03:32:04,VALID,998.295,VALID,0,VALID,90.556,VALID,0,VALID,23.8165,VALID,49,VALID,0.941016,
2010-12-19, 03:33:04,VALID,998.3,VALID,0,VALID,90.6551,VALID,0,VALID,23.797,VALID,47,VALID,0.758984,
2010-12-19, 03:34:04,VALID,998.33,VALID,0,VALID,90.7085,VALID,0,VALID,23.7384,VALID,29,VALID,0.782031,
2010-12-19, 03:35:04,VALID,998.326,VALID,0,VALID,90.8459,VALID,0,VALID,23.7189,VALID,29,VALID,0.911328,
2010-12-19, 03:36:04,VALID,998.34,VALID,0,VALID,90.9451,VALID,0,VALID,23.6799,VALID,29,VALID,0.868359,
2010-12-19, 03:37:04,VALID,998.386,VALID,0,VALID,91.09,VALID,0,VALID,23.6604,VALID,29,VALID,0.594531,
2010-12-19, 03:38:04,VALID,998.414,VALID,0,VALID,91.1511,VALID,0.112286,VALID,23.6409,VALID,29,VALID,0.294141,
2010-12-19, 03:39:04,VALID,998.426,VALID,0,VALID,91.235,VALID,0.112286,VALID,23.6019,VALID,29,VALID,0.175781,
2010-12-19, 03:40:04,VALID,998.44,VALID,0,VALID,91.3189,VALID,0,VALID,23.6019,VALID,29,VALID,0,
2010-12-19, 03:41:04,VALID,998.457,VALID,0,VALID,91.3952,VALID,0,VALID,23.5823,VALID,29,VALID,0,
2010-12-19, 03:42:04,VALID,998.452,VALID,0,VALID,91.4791,VALID,0,VALID,23.5628,VALID,29,VALID,0,
2010-12-19, 03:43:04,VALID,998.451,VALID,0,VALID,91.5478,VALID,0,VALID,23.5628,VALID,29,VALID,0,
2010-12-19, 03:44:04,VALID,998.446,VALID,0,VALID,91.6241,VALID,0.112286,VALID,23.5628,VALID,29,VALID,0,
2010-12-19, 03:45:04,VALID,998.407,VALID,0,VALID,91.647,VALID,0,VALID,23.5238,VALID,29,VALID,0,